Vancouver, WA

7:44 PM PDT on June 27, 2017 (GMT -0700)
Pearson

Weather History for KVUO - August, 2014

Change the Weather History Date:

Monday, August 4, 2014

  Actual Average Record
Temperature  
Mean Temperature 78 °F 70 °F  
Max Temperature 93 °F 82 °F 103 °F (2012)
Min Temperature 63 °F 58 °F 45 °F (1984)
Degree Days  
Heating Degree Days 0    
Month to date heating degree days 0  
Since 1 July heating degree days 3  
Cooling Degree Days 13    
Month to date cooling degree days 45  
Year to date cooling degree days 277  
Growing Degree Days 28 (Base 50)    
Moisture  
Dew Point 56 °F    
Average Humidity 49    
Maximum Humidity 68    
Minimum Humidity 30    
Precipitation  
Precipitation 0.00 in 0.02 in 0.90 in (1933)
Month to date precipitation T 0.05  
Year to date precipitation 22.25 21.11  
Sea Level Pressure  
Sea Level Pressure 29.92 in    
Wind  
Wind Speed 6 mph (NW)    
Max Wind Speed 16 mph    
Max Gust Speed 22 mph    
Visibility 10 miles    
Events      
T = Trace of Precipitation, MM = Missing Value Source: NWS Daily Summary

Daily Weather History Graph

Daily Weather History Graph

Search for Another Location

Airport or City:

Trip Planner

Search our weather history database for the weather conditions in past years. The results will help you decide how hot, cold, wet, or windy it might be!

Date:

Astronomy

Aug. 04, 2014 Rise Set
Actual Time 5:57 AM PDT 8:34 PM PDT
Civil Twilight 5:24 AM PDT 9:08 PM PDT
Nautical Twilight 4:41 AM PDT 9:50 PM PDT
Astronomical Twilight 3:52 AM PDT 10:39 PM PDT
Moon 2:51 PM PDT (8/4) 12:10 AM PDT (8/4)
Length of Visible Light 15h 44m
Length of Day
14h 36m
First Quarter, 58% of the Moon is Illuminated
Aug 4
First Quarter
Aug 10
Full
Aug 17
Last Quarter
Aug 25
New
Sep 2
First Quarter

Hourly Weather History & Observations

Time (PDT) Temp. Heat Index Dew Point Humidity Pressure Visibility Wind Dir Wind Speed Gust Speed Precip Events Conditions
12:53 AM 73.9 °F - 57.0 °F 55% 29.91 in 10.0 mi North 5.8 mph - N/A   Clear
2:53 AM 70.0 °F - 55.9 °F 61% 29.92 in 10.0 mi Calm Calm - N/A   Clear
3:53 AM 69.1 °F - 55.0 °F 61% 29.93 in 10.0 mi Calm Calm - N/A   Clear
4:53 AM 68.0 °F - 55.0 °F 63% 29.93 in 10.0 mi Variable 3.5 mph - N/A   Clear
5:53 AM 66.0 °F - 55.0 °F 68% 29.94 in 10.0 mi Calm Calm - N/A   Clear
6:53 AM 66.0 °F - 55.0 °F 68% 29.96 in 10.0 mi Variable 3.5 mph - N/A   Clear
7:53 AM 66.9 °F - 55.9 °F 68% 29.96 in 10.0 mi Calm Calm - N/A   Clear
8:53 AM 69.1 °F - 55.9 °F 63% 29.97 in 10.0 mi Variable 3.5 mph - N/A   Clear
9:53 AM 72.0 °F - 57.9 °F 61% 29.96 in 10.0 mi Calm Calm - N/A   Clear
10:53 AM 75.9 °F - 59.0 °F 56% 29.95 in 10.0 mi West 8.1 mph - N/A   Clear
11:53 AM 79.0 °F - 57.9 °F 48% 29.94 in 10.0 mi North - - N/A   Clear
12:53 PM 84.0 °F 83.3 °F 57.0 °F 40% 29.92 in 10.0 mi NW 9.2 mph - N/A   Clear
1:53 PM 87.1 °F 85.9 °F 57.0 °F 36% 29.91 in 10.0 mi NW 10.4 mph - N/A   Clear
2:53 PM 90.0 °F 88.1 °F 55.9 °F 31% 29.88 in 10.0 mi North 9.2 mph - N/A   Clear
3:53 PM 91.9 °F 90.0 °F 55.0 °F 29% 29.87 in 10.0 mi NW 10.4 mph - N/A   Clear
4:53 PM 91.9 °F 90.3 °F 55.9 °F 30% 29.86 in 10.0 mi NNW 9.2 mph 20.7 mph N/A   Clear
5:53 PM 91.0 °F 89.2 °F 55.9 °F 30% 29.85 in 10.0 mi NW 12.7 mph 19.6 mph N/A   Clear
6:53 PM 89.1 °F 88.0 °F 57.9 °F 35% 29.86 in 10.0 mi NNW 8.1 mph 16.1 mph N/A   Clear
7:53 PM 84.0 °F 83.8 °F 59.0 °F 43% 29.88 in 10.0 mi NNW 8.1 mph - N/A   Clear
8:53 PM 78.1 °F - 55.0 °F 45% 29.90 in 10.0 mi NW 9.2 mph - N/A   Clear
9:53 PM 73.0 °F - 53.1 °F 49% 29.94 in 10.0 mi NW 5.8 mph - N/A   Clear
10:53 PM 69.1 °F - 53.1 °F 57% 29.95 in 10.0 mi NW 9.2 mph - N/A   Clear
11:53 PM 66.0 °F - 51.1 °F 59% 29.98 in 10.0 mi NNW 3.5 mph - N/A   Clear